Theta_e
286 287 286 285 283 281 277 279 277 279 279 282 282 281 279 279 280 282 285 286 286 284 283 284 285 286 288 288 288 289 288 287 287 288 289 289 288 289 289 288 288 289 289 289
282 284 284 282 284 283 281 280 280 281 280 282 279 279 278 278 279 281 284 286 286 286 285 286 286 287 288 288 288 288 288 288 288 288 288 288 288 289 288 288 287 288 287 288
280 282 282 281 282 283 282 282 282 279 282 280 279 280 279 278 280 281 284 286 286 286 286 286 286 287 286 287 288 288 288 288 289 288 288 288 289 289 288 287 287 286 287 287
277 281 277 285 284 286 285 285 285 283 281 282 282 281 280 280 279 281 285 286 286 286 286 286 286 287 287 288 288 288 288 288 289 288 287 288 288 288 288 288 287 287 287 287
277 279 284 284 284 284 284 285 288 286 283 282 281 280 278 282 281 282 284 286 286 286 286 286 286 286 287 287 287 288 288 288 289 288 287 287 286 287 288 288 287 287 288 287
274 275 278 286 285 287 287 281 287 287 284 281 279 273 275 280 283 284 286 288 286 286 286 286 286 286 286 286 286 286 288 289 289 288 287 286 286 287 288 287 289 289 288 287
277 276 283 289 286 287 281 285 287 287 284 281 279 278 279 282 283 285 286 287 287 286 285 285 286 286 285 285 285 287 289 290 289 288 287 286 285 286 286 287 287 286 287 287
276 276 280 286 284 284 288 284 286 286 284 282 281 280 281 282 284 285 286 287 288 285 285 286 286 286 285 284 287 288 289 289 288 287 288 288 285 285 286 285 285 284 285 285
284 286 289 287 285 286 287 286 285 285 284 283 281 280 281 282 284 285 286 286 287 286 285 286 286 286 284 285 288 289 288 287 287 288 288 287 285 285 285 284 284 285 285 284
287 289 291 287 287 288 288 287 286 286 285 284 282 281 281 283 283 284 285 285 286 286 285 285 286 287 286 287 288 288 287 287 287 286 288 287 287 287 285 284 284 285 285 284
286 288 288 290 288 288 288 288 287 286 285 284 283 281 282 283 283 285 285 285 286 285 285 285 287 287 287 288 288 287 287 287 287 287 286 286 287 286 287 286 287 285 285 285
287 290 291 291 291 289 288 287 287 286 284 284 284 282 283 283 284 285 285 285 285 285 286 286 287 287 287 288 288 287 287 287 287 287 286 286 286 286 292 294 296 296 295 294
292 290 290 289 290 290 289 287 287 286 286 284 283 284 284 283 284 287 285 285 285 285 286 287 287 287 288 288 288 288 286 287 287 288 287 285 285 285 283 288 293 294 296 294
289 290 287 289 289 288 288 288 291 286 285 285 284 285 285 284 286 285 285 285 286 286 287 288 287 287 288 289 288 287 287 292 285 285 286 286 285 285 285 284 283 284 290 292
290 289 290 289 287 287 287 288 285 284 283 282 284 285 285 284 284 285 285 286 286 286 288 289 287 287 289 289 288 287 288 287 286 285 286 288 286 286 285 285 284 284 285 288
289 287 288 288 286 286 286 286 285 284 284 282 283 284 285 285 285 285 286 286 285 284 288 288 286 288 290 290 289 287 287 291 291 286 286 286 285 285 284 284 284 283 284 284
286 284 285 285 286 286 286 287 287 285 285 283 284 285 285 284 284 284 285 285 286 286 289 289 288 288 290 291 290 290 286 287 291 286 285 285 285 284 284 283 283 283 283 286
295 296 292 291 288 287 286 287 287 286 284 284 285 285 284 284 284 284 284 284 284 286 288 289 288 289 291 292 291 290 286 286 286 286 286 286 285 285 283 283 283 282 282 285
294 292 290 289 290 289 288 287 287 286 285 284 284 284 285 285 284 284 284 284 283 282 285 287 290 290 290 291 292 289 285 285 285 285 286 286 284 283 283 283 282 282 283 284
295 293 291 291 290 289 288 288 287 286 285 284 285 284 284 284 285 284 284 283 283 284 287 288 288 288 290 292 291 288 284 283 283 283 284 282 282 281 281 284 284 283 283 283
293 293 291 290 289 289 289 288 287 285 284 285 284 284 284 284 285 285 283 282 283 287 287 290 286 287 290 291 289 287 287 285 283 282 282 281 280 281 280 280 281 282 283 283
292 292 291 290 289 288 288 288 287 285 284 284 285 285 284 284 284 284 284 283 284 290 287 287 285 290 291 291 288 287 286 286 285 285 285 284 284 283 283 283 283 283 283 282
292 292 290 289 288 288 287 287 286 285 284 284 284 284 285 285 285 283 281 284 286 288 285 285 289 291 292 289 289 288 286 286 286 285 285 285 284 284 283 283 283 283 283 283
288 288 288 288 287 286 285 285 285 285 284 285 285 286 286 284 283 284 285 288 289 288 285 287 289 291 290 288 288 287 287 286 286 286 285 285 285 284 284 283 283 284 284 284
288 287 287 286 286 286 285 284 283 283 283 284 285 286 286 287 285 284 285 286 289 288 287 290 290 290 288 288 287 287 286 286 286 285 285 284 284 284 284 284 284 284 284 284
286 286 287 287 287 285 285 284 282 282 283 283 284 285 285 285 286 285 285 287 287 287 286 288 288 287 287 287 287 286 286 286 286 286 286 286 285 284 284 284 284 284 284 285
286 288 285 284 285 285 284 284 282 282 284 284 283 285 285 285 285 285 286 285 286 286 286 286 287 287 286 286 286 286 287 287 287 286 286 286 286 285 284 284 284 285 285 285
Wind_Speed
5 4 5 6 6 9 9 6 7 4 6 5 8 12 9 9 7 6 6 5 4 4 1 4 6 5 6 6 6 6 6 6 6 6 6 6 7 7 7 5 5 6 7 9
4 3 4 5 8 11 7 4 10 11 17 3 5 8 7 9 8 6 6 5 5 5 3 2 5 5 5 7 7 5 6 6 6 6 6 6 6 7 6 6 4 5 6 7
5 2 4 9 10 14 7 6 7 7 9 8 5 8 9 9 9 8 7 6 6 5 3 1 4 4 5 7 6 6 6 6 6 6 6 6 6 7 8 6 5 3 5 6
3 3 3 5 2 6 9 5 12 3 6 11 7 6 7 8 9 8 8 7 6 5 3 3 3 4 5 6 6 6 6 6 6 6 6 6 6 7 7 5 5 4 4 5
4 3 8 3 6 8 10 9 16 15 8 6 6 5 4 7 8 8 7 6 6 5 4 2 2 3 5 5 5 6 6 6 6 6 6 6 7 7 6 5 5 5 4 6
3 3 6 4 3 4 5 7 5 11 12 12 8 3 7 10 9 8 7 6 6 6 4 2 2 2 4 4 5 6 8 8 6 6 6 6 6 7 4 4 5 5 7 6
3 3 11 5 7 4 3 10 6 10 11 14 8 7 4 11 8 7 6 7 7 6 5 4 4 1 3 4 5 6 8 9 6 6 6 5 6 4 5 6 6 7 7 7
3 2 11 8 5 9 7 1 6 6 9 9 7 8 12 9 10 9 8 7 7 6 4 4 5 3 1 3 5 6 7 7 5 5 4 3 5 5 4 6 6 6 5 5
12 10 4 13 3 5 5 6 6 8 7 12 12 8 11 8 10 8 8 6 6 6 5 2 4 4 1 3 5 6 6 7 5 6 5 5 4 5 4 5 4 5 5 5
3 5 8 10 8 5 6 6 6 7 10 14 14 11 10 9 8 8 7 7 6 6 5 4 4 4 3 1 4 5 6 6 5 5 6 5 4 3 3 4 4 4 5 6
6 8 2 8 14 10 7 7 7 7 8 14 13 13 12 10 9 8 8 6 6 6 5 5 3 2 3 1 3 4 5 5 5 4 4 5 5 3 4 4 3 4 4 3
9 8 6 6 8 12 13 11 11 12 9 10 12 14 10 10 8 7 8 7 6 6 6 5 4 2 4 2 1 3 4 3 3 3 3 3 4 5 9 9 11 11 11 9
5 3 5 1 3 12 14 14 13 12 11 15 11 12 11 7 8 11 7 8 7 7 6 6 5 4 3 3 1 3 4 4 3 3 3 3 3 4 5 8 9 10 9 10
4 7 2 5 6 9 8 11 14 9 7 11 12 10 11 9 8 8 9 8 7 7 6 5 4 5 5 3 2 4 5 7 1 3 3 4 4 4 3 3 4 5 6 8
11 8 4 5 7 7 7 12 12 11 11 10 10 11 12 12 10 10 9 7 7 7 6 5 5 6 4 3 2 4 4 3 2 3 3 4 3 4 3 4 4 4 4 6
9 6 7 8 10 11 11 13 14 14 13 12 13 12 12 10 9 7 10 9 9 8 8 9 6 4 4 3 4 3 4 7 4 2 3 4 4 4 4 4 4 4 4 4
8 6 8 7 13 17 22 17 15 14 14 15 15 13 12 11 9 8 10 9 7 7 7 7 7 4 3 4 5 3 3 4 6 2 2 3 3 4 4 3 4 4 4 5
18 18 17 10 15 15 15 16 14 15 17 16 14 15 14 14 13 11 10 9 7 6 6 6 5 5 3 2 4 2 3 3 3 2 1 2 3 3 3 3 4 4 4 5
15 11 11 10 15 17 16 17 17 15 15 16 17 17 15 13 12 10 10 10 9 7 6 7 10 7 4 4 2 1 1 3 3 3 3 6 4 4 4 4 4 4 4 4
13 13 12 15 14 16 16 15 16 15 16 16 15 15 14 12 12 12 11 10 9 5 7 9 7 4 4 4 4 3 3 3 3 3 3 3 3 4 4 7 5 4 4 4
11 14 14 14 14 13 14 15 16 17 17 18 19 18 16 12 12 13 11 7 7 9 8 12 6 4 3 4 5 3 3 1 1 2 3 3 3 4 4 4 4 4 4 5
7 11 13 14 14 14 13 15 16 16 18 17 16 15 15 14 12 11 8 9 7 17 7 5 4 7 5 9 4 3 3 3 1 0 1 1 2 3 4 5 6 6 6 6
7 9 9 13 15 13 12 15 15 17 18 18 19 18 17 13 12 12 9 9 9 13 6 5 10 12 11 5 4 3 2 2 3 1 1 1 2 2 2 3 3 4 6 6
4 5 7 7 10 12 15 14 14 15 15 14 14 15 15 12 5 4 6 17 19 17 8 7 10 13 10 5 4 4 3 3 2 2 1 2 1 1 2 3 3 3 3 5
3 5 7 10 11 8 10 11 11 11 13 12 12 12 12 9 8 9 10 10 21 14 8 15 15 14 6 5 5 4 3 3 3 2 2 1 1 2 2 3 4 4 4 4
2 4 4 7 7 7 8 11 10 9 10 10 9 10 9 7 10 11 10 14 12 15 7 7 6 6 6 6 6 5 4 4 3 2 3 2 2 2 2 3 3 4 5 5
4 4 4 4 3 6 8 10 11 11 11 11 10 9 10 9 11 13 15 12 11 9 8 7 6 8 6 6 6 5 5 4 5 3 2 2 1 1 2 2 3 4 4 5
Wind_Direction
241 195 174 188 171 192 191 200 168 251 244 210 216 193 182 176 173 153 152 147 143 131 65 336 337 351 357 344 335 342 353 354 346 340 351 348 349 341 334 350 9 358 354 350
289 159 198 247 211 199 215 242 270 267 285 176 117 109 152 179 170 169 163 166 152 139 117 354 344 352 356 337 325 354 356 348 337 342 354 344 342 338 337 334 352 7 353 338
273 255 308 294 209 181 184 202 166 199 227 153 170 184 189 187 179 175 174 178 168 154 157 145 27 11 358 326 322 354 348 335 333 342 353 346 332 339 340 331 341 322 335 342
224 35 298 248 92 186 196 220 208 193 173 182 182 196 186 176 169 173 170 173 156 154 119 65 46 357 340 330 342 351 337 333 331 346 349 346 345 338 334 330 329 327 323 337
130 207 285 250 204 162 170 273 203 209 162 164 122 82 249 173 160 165 172 167 164 141 138 99 60 343 346 339 348 343 330 325 330 344 348 347 346 336 330 345 333 337 342 345
70 145 231 250 169 144 102 290 193 166 164 154 133 145 249 168 144 151 162 162 143 141 128 99 213 16 348 350 355 335 325 318 333 347 356 351 343 337 329 339 343 346 350 350
170 236 284 227 155 140 120 236 165 165 157 156 180 194 168 142 141 155 166 156 138 138 162 193 184 84 5 1 343 309 320 320 340 351 346 8 353 348 349 354 354 353 354 345
99 122 277 147 74 169 210 99 153 147 159 161 140 135 144 146 147 155 161 155 150 154 191 203 175 118 32 340 308 316 319 319 341 348 346 1 13 359 353 4 351 335 342 346
181 210 220 203 207 216 171 159 182 152 152 142 145 159 158 163 161 167 170 171 157 160 193 193 180 146 109 295 327 326 332 322 341 353 351 356 351 345 351 357 353 342 353 347
82 241 214 211 231 209 191 189 169 152 144 156 160 161 162 161 169 168 164 167 160 161 185 197 186 159 179 311 343 335 331 330 348 6 353 342 338 311 333 338 350 346 337 344
262 275 298 238 216 183 188 167 147 147 155 163 155 168 167 169 174 172 163 162 163 174 181 195 168 192 175 144 4 342 328 335 356 349 354 342 330 316 333 306 257 305 313 319
218 212 176 232 212 170 175 180 169 157 150 160 163 166 162 170 170 165 164 156 166 189 179 191 184 220 198 179 40 335 315 328 332 339 334 341 336 340 337 345 339 299 306 340
226 168 192 327 170 174 178 170 171 169 167 168 162 162 165 162 165 169 162 162 168 186 185 191 187 234 191 160 12 322 311 306 320 346 321 325 326 341 341 327 340 1 7 18
169 121 252 203 207 182 157 162 162 150 151 164 161 156 157 156 165 156 168 173 165 176 184 167 194 231 198 132 331 315 306 322 37 316 315 315 320 310 315 331 335 330 335 352
204 219 214 134 123 146 131 144 161 171 159 154 163 162 162 163 170 170 160 166 165 166 177 181 202 233 193 153 287 308 315 319 287 309 309 314 316 321 335 331 334 321 322 347
192 178 166 168 169 166 157 170 176 183 176 169 165 170 168 164 159 159 159 161 165 180 184 207 206 225 182 227 261 297 324 333 343 304 323 329 340 341 336 343 332 340 330 309
131 205 198 199 182 183 193 187 189 181 173 176 174 162 154 156 159 164 168 166 170 177 182 187 208 196 223 237 255 276 321 314 329 350 329 325 329 331 323 331 331 331 320 325
210 218 200 201 184 181 192 190 185 180 184 173 161 159 165 168 178 174 171 160 165 184 167 171 174 196 211 216 247 282 302 298 307 318 314 354 336 340 340 333 337 334 332 334
214 207 189 185 182 189 188 187 190 177 168 166 164 175 175 174 165 165 159 164 167 182 190 156 192 192 199 210 176 119 357 4 15 10 11 27 15 2 355 360 359 356 347 345
219 200 192 200 182 182 184 188 176 172 170 167 165 166 170 172 163 160 169 184 181 174 163 163 163 176 191 201 149 113 77 17 8 27 29 36 18 12 4 14 8 356 352 346
212 199 202 189 189 182 184 174 169 174 170 168 171 174 172 168 166 157 161 178 187 162 156 161 159 173 181 167 137 139 132 148 342 30 50 41 10 8 3 356 352 341 346 342
193 193 194 182 177 180 176 171 173 165 169 169 169 163 159 161 167 167 169 171 166 168 147 151 164 179 174 151 146 161 156 153 153 304 12 16 11 359 358 354 351 345 342 341
200 199 184 176 179 170 156 168 170 167 171 172 171 168 170 165 166 166 171 175 161 166 147 156 178 173 160 139 146 155 154 143 133 102 35 8 31 10 353 344 340 336 348 341
184 171 161 135 131 148 168 174 168 172 169 167 169 167 158 153 146 135 134 157 158 159 154 169 178 169 146 141 144 142 136 121 101 98 87 46 36 11 352 327 336 335 337 332
198 155 140 150 164 171 155 150 142 147 149 155 159 161 160 168 160 153 147 152 162 157 159 177 177 171 144 146 142 144 140 132 126 112 92 41 6 25 9 352 339 348 330 327
193 165 162 166 159 150 147 151 154 159 158 155 158 158 153 138 141 141 145 151 158 164 157 164 154 144 146 142 142 145 138 131 123 120 111 72 11 20 20 9 346 338 335 333
49 87 97 89 98 142 154 163 154 164 167 164 156 156 148 141 149 144 149 154 158 159 153 149 154 151 146 145 139 137 137 136 142 141 124 96 71 24 31 22 4 342 341 346